Regional Weather Roundup
Issued by NWS

Home | Current Version | Previous Version | Graphics & Text | Print | Product List | Glossary On
Versions: 1 2 3 4 5 6 7 8 9 10 11 12 13 14 15 16 17 18 19 20 21 22 23 24 25 26 27 28 29 30 31 32 33 34 35 36 37 38 39 40 41 42 43 44 45 46 47 48 49 50
000
ASUS43 KLSX 211107
RWRMO

WEATHER SUMMARY FOR MISSOURI
NATIONAL WEATHER SERVICE SPRINGFIELD MO
600 AM CDT THU AUG 21 2014

NOTE: "FAIR" INDICATES FEW OR NO CLOUDS BELOW 12,000 FEET WITH NO
       SIGNIFICANT WEATHER AND/OR OBSTRUCTIONS TO VISIBILITY.
       CURRENT SKY AND/OR WEATHER CONDITIONS ARE NOT AVAILABLE FOR
       CHILLICOTHE AND FARMINGTON.

MOZ001>031-035>038-043-044-053-054-211200-
...NORTHERN AND WESTERN MISSOURI...

CITY           SKY/WX    TMP DP  RH WIND       PRES   REMARKS
KANSAS CTY INT PTCLDY    78  69  73 S15       29.88S
KANSAS C DTWN  CLEAR     80  69  69 SW10      29.88S
LEE`S SUMMIT   CLEAR     75  68  78 S10       29.91S
ST JOSEPH      CLEAR     77  70  79 S8        29.84F
CHILLICOTHE      N/A     75  67  76 S9        29.89F
KIRKSVILLE     CLEAR     74  67  78 S7        29.90F

$$
MOZ066>068-077>081-088>096-101>105-211200-
...SOUTHWEST MISSOURI...

CITY           SKY/WX    TMP DP  RH WIND       PRES   REMARKS
SPRINGFIELD    CLEAR     73  68  84 S12       30.00R
JOPLIN         CLEAR     78  69  73 S17       29.97S

$$
MOZ032>034-039>042-045>050-055>058-069>072-211200-
...CENTRAL MISSOURI...

CITY           SKY/WX    TMP DP  RH WIND       PRES   REMARKS
COLUMBIA       CLEAR     70  67  90 S9        29.96R
JEFFERSON CITY CLEAR     72  67  84 SE5       29.95S
ROLLA          MOCLDY    74  66  76 S13       29.99S
SEDALIA        CLEAR     76  67  73 S12       29.95R
WHITEMAN AFB   PTCLDY    72  64  76 S10       29.93R
OSAGE BEACH    CLEAR     70  64  83 S5        29.98R

$$
MOZ051-052-059>065-211200-
...EAST CENTRAL MISSOURI...

CITY           SKY/WX    TMP DP  RH WIND       PRES   REMARKS
ST LOUIS INTL  PTCLDY    77  67  71 SW9       29.97S
SPIRIT OF STL  CLEAR     71  67  87 W6        29.96R
ST CHARLES     MOCLDY    69  68  96 CALM      29.95S FOG

$$
MOZ072>076-082>087-097>100-106>115-211200-
...SOUTH CENTRAL AND SOUTHEAST MISSOURI...

CITY           SKY/WX    TMP DP  RH WIND       PRES   REMARKS
CAPE GIRARDEAU PTCLDY    76  73  91 CALM      30.02S
FARMINGTON     PTCLDY    77  70  78 SW10      30.04R
POPLAR BLUFF   CLEAR     74  70  87 SW5       30.02R
WEST PLAINS    CLEAR     74  69  85 S6        30.06R

$$


USA.gov is the U.S. government's official web portal to all federal, state and local government web resources and services.